GFSGBSN_250_rhum_096.txt.gz
RH
100 100 100 100 100 100 100 100 100 82 71 76 65 47 44 41 41 41 34 32 33 45 65 59 52 61 88 96 100 78 82 90 100 100 100 76 84 96 100 100 100 92 100 100 100 100 90
100 100 100 100 100 100 90 62 91 88 71 50 59 46 47 42 38 31 30 33 35 33 38 57 60 52 52 74 100 89 84 83 95 98 100 98 89 78 77 100 100 100 100 100 100 100 96
100 90 75 77 68 65 58 62 59 53 52 48 51 47 48 45 36 32 28 27 31 36 32 39 52 65 60 98 82 86 83 100 83 90 92 95 94 100 82 86 100 100 100 97 100 91 88
80 79 67 60 65 56 63 58 71 64 58 47 47 39 31 28 24 23 21 26 25 28 34 36 40 53 81 99 68 70 82 100 100 100 96 98 92 84 77 79 84 85 73 92 82 78 68
69 59 78 72 76 72 60 69 60 58 46 36 30 26 22 20 14 14 13 13 19 27 35 42 40 42 62 76 80 93 74 90 99 100 100 98 93 100 98 92 74 76 72 69 64 69 75
82 65 72 80 78 69 65 59 57 42 36 31 21 16 12 14 16 15 13 13 15 16 24 39 46 54 49 75 71 78 95 78 95 96 100 100 100 96 91 96 100 100 77 78 70 76 86
80 84 71 82 77 72 80 67 55 40 31 20 13 14 15 15 14 12 14 13 14 15 18 31 52 56 53 51 79 65 74 74 71 86 99 100 100 100 100 100 100 100 100 100 100 90 100
89 86 80 87 70 75 77 56 47 35 18 14 14 14 12 10 9 10 10 11 12 12 15 29 55 76 69 58 45 65 65 50 51 57 76 100 99 100 100 100 100 100 100 100 100 100 100
88 88 82 70 84 79 62 58 40 19 15 16 14 11 8 7 6 5 6 6 10 11 11 21 46 80 80 53 72 70 71 71 58 48 58 78 97 98 95 95 99 100 100 100 88 88 58
84 80 83 86 76 63 61 43 23 19 19 15 10 8 7 7 6 6 7 6 5 6 10 30 29 65 87 54 80 88 73 85 95 80 65 57 72 94 90 74 79 85 80 80 75 72 53
93 82 91 79 66 62 59 33 22 21 16 11 9 8 9 8 6 7 7 6 5 5 6 20 26 41 99 88 98 69 84 100 100 98 87 66 67 73 78 74 59 58 66 49 49 42 45
89 94 87 78 64 63 45 28 24 19 14 11 11 10 8 6 6 5 4 4 5 5 8 10 20 28 60 66 99 89 72 100 100 100 100 100 99 89 85 76 73 73 64 53 47 47 54
98 85 82 69 66 52 34 29 21 17 12 13 12 9 7 6 5 4 3 3 4 6 8 9 12 28 44 62 90 100 88 90 100 100 100 100 100 100 100 100 94 74 65 82 78 79 78
92 84 81 68 57 38 34 28 18 14 12 12 10 8 6 5 4 4 3 3 4 5 6 10 11 18 37 63 98 100 90 84 90 100 100 100 100 100 100 100 100 100 100 100 100 99 74
81 88 76 72 43 37 33 23 16 12 12 11 9 7 6 4 4 4 3 3 4 4 6 8 11 13 23 43 65 97 100 99 90 88 91 99 100 100 100 100 100 100 100 95 79 72 66
91 85 81 59 38 36 25 18 14 13 12 11 8 7 5 4 4 4 4 3 3 4 5 8 11 12 18 31 56 94 98 100 100 98 100 98 98 94 89 92 89 88 85 86 78 71 63
98 91 73 45 37 29 22 16 16 13 12 9 8 7 4 4 4 4 4 3 3 4 5 7 9 13 14 23 39 78 99 100 100 100 100 98 95 98 96 82 82 91 94 86 71 69 62
98 90 54 46 36 27 20 20 17 12 11 9 8 6 5 4 4 3 3 3 3 4 5 6 9 13 13 19 31 52 100 100 100 100 100 100 100 100 98 100 94 84 83 71 70 71 64
96 78 54 51 35 26 23 22 16 12 11 9 8 6 5 4 4 3 3 4 4 4 5 6 8 16 14 20 28 36 79 100 100 100 100 100 100 100 99 100 93 89 88 75 67 74 74
93 65 54 47 30 29 28 24 16 14 11 10 7 7 5 4 3 4 4 4 5 5 5 7 9 15 14 22 24 31 41 58 75 91 100 100 100 96 97 97 96 90 82 73 73 74 78
71 64 53 43 31 30 31 24 16 14 12 10 9 9 6 4 4 4 4 4 4 5 6 7 7 12 14 22 23 28 30 35 47 77 98 100 99 90 87 90 95 86 74 64 69 75 71
68 58 47 37 35 34 32 24 17 17 14 11 13 10 6 4 4 4 4 5 5 6 5 6 8 12 18 18 19 21 22 26 35 41 75 89 91 93 91 92 97 96 68 68 65 69 66
65 54 44 40 37 37 31 22 18 18 15 11 17 11 7 5 5 5 6 6 7 8 6 9 10 14 14 15 18 25 27 32 38 46 52 69 85 91 97 93 88 74 74 75 70 61 52
59 49 44 39 39 37 27 22 19 19 18 12 18 13 8 7 6 6 6 8 8 10 10 11 12 18 19 25 30 27 28 30 34 38 52 70 80 76 86 76 81 74 69 67 66 50 51
47 45 42 40 41 34 24 23 20 20 19 14 19 15 10 8 7 7 9 9 10 11 13 13 14 21 26 26 30 31 29 28 28 31 39 47 50 54 57 56 72 59 65 75 60 51 56
41 42 42 38 37 29 23 23 21 22 20 17 22 16 13 10 8 7 10 10 10 10 13 16 17 19 26 29 30 32 31 26 26 28 28 31 36 43 52 63 78 70 72 71 63 50 63
40 41 38 33 31 26 24 25 23 23 20 20 28 18 15 11 9 9 10 10 11 13 13 13 15 19 21 26 28 29 29 29 30 29 27 30 37 46 48 58 77 64 60 62 51 51 77
35 33 31 29 29 27 26 27 25 24 21 20 31 20 17 13 11 11 11 12 9 13 16 17 17 18 20 24 27 29 30 30 32 32 30 30 38 37 39 52 74 50 44 48 52 57 92
26 26 30 30 30 28 30 29 28 26 22 21 31 22 24 18 14 12 13 12 16 14 13 15 18 19 21 24 26 30 29 31 31 31 33 32 36 35 32 34 56 41 35 46 54 69 90

GFSGBSN_250_rhum_102.txt.gz
RH
100 100 100 100 100 100 100 100 79 66 75 78 73 66 56 62 56 62 60 63 65 64 62 60 85 99 89 76 88 58 61 44 44 42 52 68 55 57 64 72 86 76 71 62 73 79 100
100 100 100 100 100 100 100 98 97 84 69 53 52 52 60 64 56 51 46 48 46 41 37 38 48 62 77 95 99 63 56 58 56 48 46 49 65 74 72 60 69 90 87 63 74 100 97
100 100 100 100 100 90 100 89 100 96 71 50 68 72 60 53 50 43 38 37 35 31 32 32 37 38 33 58 58 62 61 55 47 61 53 50 48 53 81 72 70 67 92 72 75 77 100
100 100 100 100 89 82 100 100 98 79 60 67 78 84 66 48 42 40 35 31 28 25 24 25 25 29 33 40 43 47 41 42 47 48 47 52 47 49 60 70 77 82 70 97 80 84 100
100 100 100 100 88 100 100 100 85 56 60 83 82 92 68 53 44 33 28 28 23 18 16 17 16 17 19 22 31 33 29 32 26 33 45 45 52 47 49 58 72 73 74 94 99 97 100
100 97 92 100 100 100 100 86 60 64 82 93 86 77 63 55 38 28 26 24 18 17 17 13 12 11 9 14 19 21 23 22 24 21 28 36 42 43 47 49 74 85 97 100 100 100 84
100 100 100 100 100 100 93 61 56 87 94 94 78 74 59 48 30 25 25 21 18 13 12 11 10 9 9 8 9 10 15 19 20 16 20 32 36 36 39 48 60 93 89 99 73 89 100
100 100 100 100 100 74 58 66 94 100 98 76 85 71 48 37 25 25 22 17 12 10 10 10 6 6 8 7 10 11 10 11 12 16 16 26 28 36 39 42 49 75 87 76 85 68 81
100 100 100 82 89 90 96 100 96 99 84 91 79 56 46 31 30 27 19 11 8 6 5 11 6 4 4 5 6 12 9 9 10 11 15 25 29 38 39 41 45 60 78 96 97 83 82
100 100 100 100 100 100 100 100 95 82 91 76 56 54 41 30 32 24 14 8 5 5 5 9 7 5 4 4 5 6 9 9 9 12 13 18 23 34 42 42 45 51 66 87 99 98 93
100 100 100 100 100 100 100 100 100 100 85 64 53 49 32 31 27 17 12 6 6 6 6 7 6 6 5 5 7 5 6 8 12 15 14 22 25 35 43 58 61 58 62 81 96 100 98
100 100 100 100 100 100 96 94 91 92 70 53 57 37 34 33 20 13 8 7 6 6 5 5 6 5 4 5 7 6 6 8 14 17 17 21 32 41 47 63 80 79 77 83 93 87 96
100 100 99 100 95 100 100 98 97 80 55 57 45 36 36 27 17 10 9 7 6 6 5 4 4 4 4 4 6 6 6 8 16 24 34 44 46 66 73 73 83 92 95 86 88 85 98
100 100 100 100 100 100 96 87 81 56 56 54 42 38 31 20 12 9 9 6 6 5 4 4 4 4 3 4 5 6 8 8 14 24 45 56 79 94 100 98 91 97 97 94 88 94 98
100 100 100 100 96 86 82 86 64 61 54 48 46 36 27 15 10 10 7 6 5 4 4 4 4 4 3 4 4 6 9 9 16 40 60 80 82 90 97 98 98 99 100 100 100 96 92
100 100 100 100 100 84 88 70 60 57 60 55 47 33 24 12 11 8 6 5 4 4 4 4 4 4 4 4 5 6 9 10 18 35 68 92 86 92 100 100 100 98 99 98 97 100 100
100 100 99 100 85 82 71 61 60 70 61 59 49 31 19 13 11 8 6 5 4 4 4 4 4 3 4 5 5 7 10 13 20 47 91 94 100 100 100 100 100 100 100 100 99 98 98
99 96 92 85 81 65 66 68 73 69 66 64 41 29 15 14 11 8 7 6 4 4 4 4 4 4 5 6 7 8 14 17 26 75 100 100 100 100 100 100 100 100 100 100 100 98 98
84 72 81 84 81 73 73 80 75 70 71 59 40 23 17 16 10 9 8 6 5 4 4 4 5 5 7 8 9 12 16 18 28 81 100 100 100 100 100 100 99 98 100 100 100 100 100
88 90 88 78 80 83 82 85 84 75 72 54 38 22 22 16 12 10 9 6 5 4 4 5 5 5 7 7 9 12 17 22 30 69 100 100 100 100 100 99 99 100 100 100 100 100 100
97 93 85 92 91 91 92 93 86 70 70 54 35 24 23 14 14 11 10 7 5 5 5 6 6 6 7 8 10 15 21 25 36 80 100 100 100 100 100 100 98 100 100 100 100 100 100
97 93 95 93 92 92 92 90 82 68 71 50 28 27 24 15 15 13 11 7 6 7 7 8 7 6 8 9 11 12 18 23 33 59 92 100 100 100 100 100 99 96 98 98 100 100 96
100 98 94 99 99 96 94 86 68 73 75 42 28 29 23 16 17 15 14 9 8 9 10 10 9 8 9 12 13 17 21 26 31 44 74 69 80 90 100 100 96 89 80 80 76 70 67
99 97 99 100 98 96 89 79 78 81 66 37 30 29 23 18 19 17 16 10 10 9 8 11 11 10 11 13 17 19 22 21 23 28 38 59 60 80 92 98 91 98 98 97 91 93 92
97 97 97 98 100 98 93 88 86 81 50 36 32 27 23 20 20 19 18 12 12 10 10 11 12 13 13 14 15 19 22 22 23 26 27 31 50 89 100 100 95 95 98 98 91 94 93
100 99 100 100 96 99 97 92 89 61 42 36 30 26 24 23 21 21 19 16 13 11 10 10 12 14 15 18 17 21 20 20 21 27 28 29 36 54 88 98 100 100 98 100 95 99 92
100 100 100 99 98 94 94 96 66 48 39 33 30 26 24 25 22 22 21 18 14 12 11 13 12 15 17 19 22 21 24 29 30 31 34 35 35 42 54 62 80 90 98 98 91 90 87
94 94 94 98 100 100 92 65 47 40 34 33 31 28 27 28 23 23 22 18 14 14 13 14 16 15 17 18 24 28 26 30 38 36 36 37 42 44 49 46 47 52 62 68 60 55 63
100 100 100 98 81 63 49 45 36 33 32 33 34 28 33 30 26 23 26 22 16 15 13 14 16 17 16 18 19 22 30 33 38 40 37 36 35 39 41 41 33 34 36 43 46 45 50

GFSGBSN_250_rhum_105.txt.gz
RH
85 75 97 100 100 100 100 100 100 100 100 100 100 100 100 100 100 64 68 65 54 51 43 41 42 45 40 38 56 54 47 60 93 100 99 91 60 52 54 49 51 49 50 48 48 38 41
100 93 100 100 100 100 100 100 100 100 100 100 100 99 92 88 72 85 72 55 40 44 40 33 28 30 30 33 37 35 38 43 40 56 94 89 96 71 52 46 45 46 52 50 45 46 53
100 100 100 100 100 100 100 100 100 100 100 100 100 90 67 98 99 95 70 43 45 52 55 38 26 20 21 27 28 30 25 27 36 38 46 71 92 92 84 72 56 46 44 54 53 48 63
100 100 100 100 100 100 100 100 100 100 100 100 100 97 76 96 89 77 50 44 54 58 52 33 20 14 13 16 19 20 22 22 22 22 33 48 75 80 88 84 68 52 44 47 71 56 51
95 91 96 100 100 91 100 100 100 100 100 100 72 94 100 88 50 42 45 58 58 45 33 22 16 16 12 14 14 15 17 16 20 18 16 29 43 54 83 85 75 67 51 46 59 76 58
100 78 88 86 79 100 100 100 100 83 98 99 100 100 92 77 43 56 56 50 43 37 28 20 16 14 14 11 10 13 13 14 16 16 16 16 25 35 44 53 72 79 68 55 48 67 80
100 100 85 90 100 75 100 80 100 100 86 88 92 58 45 39 56 72 71 55 42 30 23 23 18 13 16 8 8 8 8 10 12 15 17 22 18 17 33 49 81 99 81 64 54 45 60
100 93 75 100 83 100 92 82 100 99 82 76 79 88 60 70 72 60 47 47 36 26 18 25 22 13 7 7 7 8 6 7 8 10 13 14 11 24 32 39 63 71 66 75 66 51 47
100 100 100 100 100 96 100 93 100 100 94 93 87 74 72 63 58 56 58 42 29 19 15 26 14 10 7 5 5 5 5 6 7 8 8 8 16 23 25 30 34 46 68 68 69 61 43
100 100 100 100 100 100 100 100 100 98 100 100 77 66 57 61 62 61 46 30 22 18 14 11 9 8 5 4 4 5 4 4 4 6 8 8 11 15 18 21 28 32 44 49 59 62 52
100 100 100 100 100 100 100 100 100 93 84 86 96 72 65 61 63 54 32 24 20 20 11 6 5 6 6 5 5 5 5 5 5 6 5 9 11 11 13 19 26 33 39 43 50 50 54
100 100 100 100 100 100 99 100 100 100 98 98 80 68 67 50 56 51 29 24 23 16 7 6 5 5 4 4 4 4 5 6 6 5 5 7 11 14 15 15 20 31 34 40 47 50 45
100 100 100 100 100 100 100 100 100 80 92 79 80 72 57 58 60 35 28 24 20 8 6 5 4 4 4 4 4 4 5 6 7 8 7 7 11 18 20 19 24 32 41 42 48 47 51
100 100 100 100 100 100 100 100 100 100 99 71 70 66 58 57 43 36 26 24 12 8 6 4 4 4 3 3 3 3 4 5 7 8 6 9 13 20 24 32 48 47 62 96 83 70 79
100 100 100 100 100 100 100 100 98 87 82 67 67 56 59 50 42 32 26 16 9 6 5 4 4 3 3 3 3 4 4 6 7 9 9 9 13 23 37 50 59 66 74 95 100 100 97
100 100 100 100 100 99 100 99 74 81 90 71 64 66 57 50 38 33 24 12 8 6 5 4 3 4 4 4 3 4 5 6 8 9 9 11 20 30 45 75 93 91 100 100 98 89 95
100 100 100 100 100 100 100 97 86 78 76 67 58 59 55 52 44 34 19 10 8 6 5 4 4 4 4 4 4 5 6 8 9 11 12 20 32 64 71 82 99 100 100 100 100 100 100
100 100 100 100 100 100 97 94 78 72 56 61 65 64 62 51 50 32 16 11 8 7 5 4 4 5 5 4 5 6 7 9 13 14 19 33 90 100 98 98 100 100 100 100 100 100 100
99 100 100 100 100 100 98 83 70 61 64 59 66 71 68 59 48 28 15 11 10 8 6 5 5 6 6 5 5 6 8 11 15 17 24 86 100 100 100 100 100 100 100 100 100 100 100
98 100 100 100 98 100 100 80 78 71 74 66 68 76 75 61 46 22 16 11 10 9 6 6 6 6 6 6 4 7 10 14 20 25 39 100 100 100 100 100 100 100 100 100 100 100 100
100 100 100 97 74 81 79 83 83 84 72 72 79 82 68 56 40 20 18 12 12 10 7 7 7 7 7 7 6 9 12 17 22 29 57 100 100 100 100 99 100 100 100 100 100 100 100
100 100 100 98 100 100 84 91 93 80 82 91 86 79 66 61 34 22 18 15 14 13 8 8 8 9 9 9 10 10 16 19 22 31 67 100 100 100 100 100 100 100 100 100 100 100 100
100 100 100 99 96 94 96 92 89 81 84 88 82 81 68 55 28 24 17 14 17 14 10 8 8 10 11 10 12 15 20 25 28 34 59 98 100 100 100 100 98 100 100 100 96 100 100
100 98 98 100 100 88 97 85 84 90 90 82 84 72 75 46 30 24 18 14 20 18 11 11 10 12 13 14 14 15 24 24 31 34 54 97 100 100 100 100 98 100 95 92 91 95 100
100 100 98 98 96 100 99 99 89 88 90 82 76 77 80 36 31 24 20 16 18 22 14 12 12 9 15 16 16 17 20 30 34 38 50 79 99 100 100 99 100 100 99 94 87 87 90
100 100 100 100 100 97 90 99 98 92 83 78 78 78 67 37 32 24 21 17 18 22 16 13 14 12 14 18 19 20 20 23 31 36 39 46 67 96 100 93 94 96 100 100 100 99 92
99 95 92 98 93 93 100 99 92 88 86 88 76 76 49 37 31 23 23 19 18 23 16 14 14 14 13 20 23 22 25 26 24 28 28 30 36 52 92 99 99 99 100 100 100 100 100
100 100 99 99 97 99 100 100 98 95 91 81 81 64 46 35 30 24 25 21 18 23 18 15 15 15 16 16 22 24 26 22 24 26 33 36 37 37 40 70 97 95 99 100 100 100 99
100 100 100 100 100 100 100 100 99 90 82 88 78 49 39 36 31 26 26 24 20 20 19 16 17 16 17 17 18 24 29 26 25 28 33 37 36 35 36 40 44 61 84 90 95 97 97

GFSGBSN_250_rhum_108.txt.gz
RH
86 86 90 99 87 84 98 100 100 100 100 100 100 86 93 100 100 100 100 100 100 100 99 75 47 60 66 75 83 47 34 36 35 33 31 33 46 63 68 100 96 67 61 46 53 54 57
82 78 88 88 98 98 100 100 100 100 100 100 100 100 100 100 93 95 100 98 100 96 100 70 60 67 86 69 60 54 32 32 28 25 25 24 26 38 43 63 93 100 91 76 54 51 54
100 94 92 99 100 100 100 100 100 100 100 100 100 100 100 100 100 100 100 100 100 81 96 60 58 96 77 52 33 31 29 30 27 22 19 20 20 23 30 43 60 80 81 86 77 59 52
99 100 100 100 100 100 100 100 100 100 100 100 100 100 100 100 100 100 100 99 96 82 62 68 50 43 38 33 31 36 29 20 17 17 18 18 18 15 16 27 33 41 52 61 74 84 67
76 100 100 100 100 100 100 93 95 100 100 100 100 100 87 100 100 100 84 85 65 68 59 48 42 37 32 33 32 25 18 14 12 11 12 15 15 12 15 18 26 27 27 42 93 82 88
77 100 100 100 100 97 100 95 91 73 65 53 87 84 70 100 94 60 64 79 92 58 47 43 42 35 35 30 18 16 13 11 10 10 11 11 12 12 11 11 11 20 30 48 52 93 98
63 100 100 100 100 100 100 100 100 100 81 85 76 64 50 64 84 66 82 61 52 46 37 45 42 27 29 18 14 13 10 9 10 9 9 10 9 8 11 15 17 24 29 42 42 92 100
36 100 100 100 100 92 93 100 100 100 99 77 72 100 100 79 98 80 86 54 49 40 38 61 39 27 21 14 12 10 6 7 7 7 7 6 6 11 13 14 16 18 24 29 32 63 95
34 100 100 100 100 100 100 100 100 100 100 100 100 100 96 100 100 100 67 46 43 46 40 38 28 18 16 18 17 10 6 5 5 5 5 5 7 8 8 10 12 15 18 24 31 47 92
96 74 100 100 100 100 100 100 100 100 100 100 100 100 100 100 97 91 60 54 49 44 37 25 11 11 10 9 10 6 5 4 4 5 4 4 4 6 7 8 11 16 20 24 38 46 54
100 90 100 100 100 100 100 100 100 100 100 100 100 100 100 100 84 71 73 60 50 42 36 25 15 12 8 6 4 5 4 4 5 5 4 6 5 5 5 9 11 13 23 28 35 39 49
100 80 100 100 100 100 100 100 100 100 100 100 100 100 100 100 82 69 63 58 51 37 37 23 15 10 6 4 4 4 4 4 4 4 4 5 6 5 6 8 11 16 17 22 29 40 40
100 100 100 100 100 100 100 100 100 100 100 100 100 100 100 91 58 59 54 39 34 41 26 16 12 6 5 4 3 3 4 4 4 5 6 6 8 8 7 7 12 15 17 19 25 32 40
100 100 100 100 100 100 100 100 100 100 100 100 100 100 97 77 87 58 45 35 39 33 22 15 7 6 4 4 3 3 4 4 4 4 6 8 8 9 11 10 14 22 22 22 27 38 48
96 100 100 100 100 100 100 100 100 100 100 100 100 99 73 78 70 49 39 36 39 27 22 9 8 5 4 4 4 4 4 4 4 5 6 8 9 10 10 10 14 19 22 26 27 37 48
44 46 87 100 100 100 100 100 100 100 100 100 99 87 79 74 71 46 38 44 42 32 16 9 7 6 4 4 4 5 4 4 5 6 7 9 11 11 9 12 19 26 39 47 60 96 80
92 53 73 100 100 100 100 100 100 100 100 100 100 99 87 70 55 40 41 48 41 34 14 11 7 6 5 4 4 5 5 5 6 7 10 12 13 13 12 19 31 42 58 85 100 100 100
100 100 91 90 73 71 95 100 100 100 100 100 100 98 73 57 41 46 48 51 49 36 13 10 9 6 5 5 5 6 6 6 6 8 11 12 16 18 28 37 51 53 91 100 100 100 100
100 100 100 100 98 90 99 100 100 100 98 88 85 84 69 57 51 50 54 52 52 29 14 10 10 7 5 5 6 7 6 7 11 14 20 17 16 23 36 66 81 92 100 100 100 100 100
100 100 100 100 98 97 100 100 100 92 84 76 73 70 57 55 58 54 59 56 53 23 15 11 11 7 6 6 7 8 8 11 14 20 22 26 34 66 98 100 97 100 100 100 100 100 100
100 100 100 100 100 100 98 100 99 94 90 72 70 63 71 66 60 60 65 56 45 19 14 12 12 8 7 7 10 11 11 16 20 23 29 35 78 100 100 100 100 100 100 100 100 100 100
100 100 100 100 100 100 95 100 100 83 91 82 75 82 86 65 66 67 67 61 29 19 15 16 14 10 8 8 10 13 15 22 26 32 41 56 100 100 100 100 100 100 100 100 100 100 100
100 100 100 100 100 100 100 97 97 100 95 90 80 90 81 74 64 71 71 59 28 20 15 18 16 10 9 10 13 17 19 24 29 40 56 97 100 100 100 100 100 100 96 100 100 100 100
100 100 100 100 100 100 100 100 100 100 95 91 81 82 69 69 73 83 67 46 26 20 17 17 19 12 10 11 16 18 20 28 34 44 74 97 100 100 100 100 100 97 92 100 100 100 100
100 100 100 100 100 100 100 100 100 100 90 78 78 80 79 83 80 76 68 34 25 22 19 16 21 14 12 13 16 18 26 31 37 44 68 80 100 100 100 100 100 96 100 100 100 100 100
100 100 100 100 100 100 100 100 100 87 86 83 88 85 85 91 83 72 56 34 25 23 22 17 20 16 14 14 15 18 24 30 37 45 60 86 97 100 100 100 100 100 97 98 100 96 100
100 100 100 100 100 100 100 100 95 90 84 83 97 90 94 86 78 71 46 35 26 24 24 20 19 18 16 17 15 16 21 25 34 42 55 70 97 100 100 100 100 100 96 96 92 100 99
100 100 100 100 100 100 98 98 94 96 88 88 94 99 86 86 78 59 45 33 26 25 23 22 22 19 15 17 18 18 24 26 29 31 36 41 50 74 88 100 100 100 100 97 97 98 97
94 96 92 98 100 92 95 89 99 96 96 100 93 88 86 86 66 56 45 31 28 26 23 21 23 21 15 20 18 18 19 22 23 29 28 35 35 37 49 80 90 100 100 100 100 100 99

GFSGBSN_250_rhum_111.txt.gz
RH
85 99 89 90 96 82 78 77 87 96 97 92 84 100 100 100 96 93 98 100 90 90 68 70 67 57 67 85 85 78 81 87 97 90 67 73 80 83 59 42 38 31 33 41 53 65 58
72 83 75 100 95 75 88 94 91 81 80 95 100 100 100 100 100 98 99 100 100 100 91 60 80 83 100 100 98 97 84 77 93 64 59 54 54 84 61 36 28 25 23 28 34 40 57
48 50 85 82 79 85 71 57 81 100 82 100 100 100 100 100 100 100 100 100 100 100 100 100 100 92 100 100 100 90 72 40 42 42 42 41 36 34 30 25 25 23 18 20 22 28 36
54 45 51 85 92 79 76 69 62 83 98 100 100 100 100 100 100 100 100 100 100 100 100 100 85 80 81 80 52 54 44 45 36 32 32 32 29 25 21 20 18 18 14 13 16 18 24
49 50 44 75 97 80 62 66 82 99 100 100 100 100 100 100 100 100 100 100 96 86 95 95 48 41 42 44 49 47 38 34 31 27 24 22 22 20 19 16 13 12 11 11 20 19 23
62 58 49 51 55 56 65 100 100 96 93 91 97 79 99 76 62 47 44 77 54 43 47 64 38 38 44 57 47 39 32 34 35 28 17 15 14 11 11 11 12 14 15 16 16 32 33
70 61 52 51 43 45 73 100 100 100 100 100 100 100 100 100 100 100 77 67 62 43 57 60 61 48 64 62 39 32 32 26 18 10 10 10 8 10 12 10 10 10 9 10 11 17 25
71 59 52 52 46 46 56 80 100 100 100 98 100 100 99 100 100 85 83 100 100 96 83 75 86 52 63 40 32 35 36 21 12 9 9 8 7 10 10 7 7 8 8 8 11 14 16
69 68 69 60 60 64 57 44 58 100 100 100 98 88 100 100 96 95 100 100 94 87 99 94 74 63 40 35 29 30 18 11 9 8 7 5 6 5 6 6 6 8 8 9 11 16 16
72 96 84 79 82 78 45 34 32 100 100 100 100 100 100 100 100 100 100 100 96 93 73 55 49 37 30 29 25 13 10 6 6 4 4 4 5 4 4 5 5 6 8 12 13 18 19
100 100 100 100 100 98 49 41 46 93 100 100 100 100 100 100 100 100 99 94 87 80 73 61 36 25 29 29 10 16 8 5 4 4 3 4 4 4 4 5 4 5 6 9 11 12 17
100 100 100 100 100 100 67 100 100 86 100 100 100 100 100 100 90 100 93 92 93 75 67 53 32 26 35 20 11 9 6 4 3 3 3 3 3 4 5 6 6 6 5 7 9 11 12
100 100 100 100 100 96 81 100 100 100 100 100 100 100 100 100 100 100 89 80 76 62 54 43 28 32 38 15 11 6 4 3 3 3 3 4 4 4 5 6 7 5 5 8 11 10 18
100 100 100 100 100 100 100 100 100 100 100 100 100 100 100 100 100 100 71 67 71 56 50 33 30 40 19 14 7 5 4 4 3 3 3 4 4 5 6 6 6 6 13 15 18 20 27
100 100 100 100 100 100 100 100 100 100 100 100 100 100 100 100 100 99 92 78 70 57 37 39 39 39 19 9 7 5 4 4 4 4 4 4 5 6 7 8 10 8 12 12 18 22 21
100 100 100 100 100 100 100 100 100 100 100 100 100 100 100 100 100 99 97 70 60 48 45 38 40 25 13 9 7 5 5 5 5 4 5 6 8 8 9 11 13 14 11 19 22 25 32
100 100 100 100 100 100 100 100 100 100 100 100 100 100 100 100 94 93 84 66 59 45 40 41 36 24 11 9 6 5 5 6 6 7 5 6 8 10 12 15 15 18 25 35 38 71 86
100 100 100 100 100 96 100 100 100 100 100 100 100 100 100 100 85 59 53 55 45 42 40 44 30 15 12 9 7 5 6 6 8 10 10 9 9 14 17 15 17 22 32 46 94 92 100
100 100 100 100 100 100 100 100 100 97 100 100 100 100 100 94 73 61 54 47 44 43 49 48 32 16 12 9 8 6 8 8 10 12 12 11 15 18 20 21 23 29 50 94 100 100 100
100 100 100 100 100 100 100 100 100 100 100 100 94 99 96 70 56 52 44 46 43 52 47 45 28 17 11 10 8 7 9 9 12 12 19 24 26 23 31 38 56 98 100 100 100 100 100
100 100 100 100 100 100 100 100 100 100 100 100 100 90 69 54 44 54 55 48 55 61 52 44 26 18 12 11 9 8 10 13 18 22 36 31 33 40 50 72 99 100 100 100 100 100 100
100 100 100 100 100 100 100 100 100 100 100 92 98 72 62 46 55 52 58 64 53 54 52 49 26 15 13 12 10 11 13 18 18 25 36 37 56 70 86 99 100 100 100 91 100 100 100
98 100 100 100 100 100 100 100 100 100 100 94 80 64 69 81 72 66 59 72 53 57 63 47 23 15 14 14 11 14 15 24 26 27 37 44 38 70 100 99 100 100 88 100 100 100 100
100 100 100 100 100 100 100 100 100 99 92 86 77 81 75 82 74 73 74 62 58 60 66 40 22 16 16 17 13 14 17 26 33 32 43 54 88 87 100 100 99 92 100 100 100 100 100
100 100 100 100 100 100 100 100 100 100 89 98 100 91 79 89 78 63 66 62 65 66 71 32 21 18 17 18 15 15 20 28 31 40 52 64 93 100 100 100 93 84 98 98 100 100 100
100 100 100 100 100 100 100 100 100 100 100 100 97 89 90 80 70 67 71 69 62 69 58 30 23 19 18 20 17 18 17 35 37 41 58 74 83 100 84 86 92 76 95 100 100 100 100
100 100 100 100 100 100 100 100 100 100 98 100 93 94 88 87 81 74 76 69 67 71 38 28 26 22 20 22 19 16 19 26 40 45 57 95 100 100 100 74 70 91 95 99 98 98 100
100 100 100 100 100 100 100 100 100 100 100 93 90 86 74 85 82 79 67 70 71 56 33 29 28 24 21 21 23 16 17 19 34 38 50 68 99 98 96 96 96 90 95 88 96 99 97
100 100 100 100 100 100 100 100 100 100 100 100 85 84 90 77 83 69 77 70 69 47 32 28 29 27 22 21 24 18 18 17 23 30 36 48 54 90 99 98 89 94 96 89 91 92 93

GFSGBSN_250_rhum_114.txt.gz
RH
80 95 87 86 87 97 100 100 85 100 99 75 76 82 86 93 100 95 90 95 86 93 100 100 97 90 61 54 58 54 58 56 69 71 69 77 100 100 100 94 100 84 53 53 58 39 32
87 80 78 68 67 64 59 62 59 64 91 84 69 76 62 65 74 79 86 90 100 100 97 97 96 87 57 55 60 52 65 88 100 100 100 100 100 100 81 69 56 41 46 47 42 39 32
88 97 98 79 71 67 59 52 48 47 56 68 60 66 68 68 75 85 79 100 100 100 100 100 100 100 100 99 100 100 100 100 100 96 72 50 65 50 52 34 35 36 34 32 30 31 22
88 88 86 79 76 74 72 66 59 52 57 51 67 66 70 71 85 95 88 91 100 100 100 100 100 100 100 100 100 100 99 87 80 91 81 32 27 28 28 29 30 28 25 23 28 26 26
77 67 97 91 90 84 80 61 59 64 55 66 92 88 69 62 67 84 98 100 100 100 100 100 100 99 90 76 68 71 70 35 30 41 45 30 33 36 38 29 22 24 22 22 21 20 17
54 83 65 64 80 92 89 78 71 70 64 59 71 47 49 67 68 86 87 74 87 96 85 94 93 83 63 43 34 34 31 34 53 47 37 33 33 30 27 19 15 16 14 12 13 17 15
38 40 88 100 100 100 94 89 78 70 65 55 50 47 61 100 71 67 76 64 63 64 52 52 40 44 50 42 35 71 76 48 33 34 28 36 34 27 20 17 10 8 8 8 9 14 11
45 41 43 55 96 96 88 90 84 72 66 60 54 55 61 100 100 100 100 100 91 92 95 98 66 56 50 70 89 90 61 43 27 28 30 26 15 16 9 7 6 6 6 7 8 12 10
48 44 47 59 72 76 86 81 81 77 74 62 63 64 77 90 100 100 100 100 100 95 80 75 70 84 71 62 60 44 32 30 27 27 24 12 11 6 6 6 6 5 5 7 8 10 9
40 42 54 58 70 75 97 83 76 76 83 70 71 89 100 82 68 100 100 100 100 100 79 96 94 84 71 57 55 37 27 25 26 19 10 7 5 4 3 4 4 4 5 6 7 7 8
42 46 59 70 82 100 100 100 79 96 92 93 87 100 96 60 50 43 100 100 100 100 98 96 86 79 63 44 31 35 23 24 17 10 6 4 4 3 3 3 3 4 4 4 5 5 5
48 48 83 77 99 88 100 100 95 100 100 93 99 100 100 72 100 89 86 100 100 100 100 93 81 68 56 43 29 26 29 13 12 7 4 3 3 3 3 3 3 4 4 5 6 6 6
85 78 61 76 88 96 100 100 100 100 100 100 84 100 100 100 100 100 100 100 100 100 100 94 78 67 51 44 36 33 22 13 9 6 4 3 3 3 3 4 4 4 6 6 6 7 9
72 61 56 72 100 97 100 100 100 100 100 100 100 100 100 100 100 100 100 100 90 84 80 76 82 59 42 34 36 25 16 12 7 4 4 4 4 3 4 5 5 6 6 8 10 12 12
100 99 95 100 100 100 100 100 100 100 100 99 76 100 100 100 100 100 100 100 100 86 85 78 63 52 44 36 35 17 16 9 5 4 4 4 4 4 5 6 7 7 8 11 9 12 16
100 100 100 100 100 100 100 100 100 100 100 100 92 100 100 100 100 100 100 100 100 100 87 79 72 55 42 42 23 19 12 7 5 5 5 4 5 6 6 7 8 10 9 10 14 16 16
73 100 100 100 100 100 100 100 100 100 100 100 88 84 100 100 100 100 100 100 100 91 80 79 69 52 38 38 19 18 8 7 6 6 6 7 8 8 9 10 12 12 13 18 20 25 29
100 100 100 100 100 100 100 100 100 100 100 95 100 100 94 100 100 100 95 100 100 94 80 69 56 42 38 28 26 12 9 7 6 6 7 9 10 12 13 14 15 17 20 29 30 39 66
100 100 100 100 100 100 100 100 100 100 100 100 100 100 100 100 100 100 96 98 86 72 66 52 50 36 46 27 22 10 10 8 7 7 8 14 11 14 14 20 18 31 45 38 53 86 100
100 100 100 100 100 100 100 100 100 100 100 100 95 100 100 100 100 100 95 92 84 72 61 44 34 55 46 30 16 10 10 9 9 10 14 26 18 17 17 18 33 43 55 72 96 100 100
100 100 100 100 100 100 100 100 100 100 99 100 100 100 100 100 90 99 90 88 77 55 55 37 46 60 47 28 16 12 11 10 12 16 17 34 26 22 26 48 81 82 89 99 100 100 100
100 100 100 100 100 100 100 100 100 100 100 100 100 100 95 99 100 88 91 80 61 57 50 44 60 55 47 22 15 16 11 11 16 18 25 35 27 24 41 92 100 100 93 100 100 100 100
100 100 100 100 100 100 100 100 100 100 100 100 98 78 79 91 98 93 72 70 74 58 58 55 59 56 42 21 14 18 13 14 18 18 40 35 31 37 66 77 78 100 100 100 100 100 100
100 100 100 100 100 100 100 100 100 100 100 99 90 86 96 100 99 86 75 67 66 67 57 66 57 57 38 21 15 19 16 16 22 24 37 38 37 36 68 95 89 98 100 97 100 100 100
100 100 100 100 100 100 100 100 100 100 98 98 96 96 100 95 82 77 84 81 68 64 72 65 58 59 32 23 17 19 18 15 23 32 42 33 46 42 54 86 66 71 79 92 100 100 100
100 100 100 100 99 100 100 99 100 97 100 100 100 100 93 86 90 89 96 71 70 70 68 65 62 56 24 21 19 20 19 18 23 34 39 37 58 64 47 52 69 69 81 89 100 100 100
100 97 100 98 100 89 92 100 100 100 100 100 100 100 100 100 96 90 93 71 74 77 66 60 67 43 23 21 21 21 22 18 24 32 36 38 47 75 77 62 55 73 78 90 100 99 100
100 100 100 100 100 100 100 100 100 100 100 100 100 100 100 91 96 95 78 67 85 72 58 60 63 34 23 21 22 22 25 21 26 27 47 45 50 66 71 77 74 69 87 100 98 100 100
100 100 100 100 100 100 100 100 100 100 100 100 100 100 100 100 94 89 75 84 86 72 58 64 51 28 25 21 23 24 22 28 26 32 34 49 51 71 82 82 87 86 86 99 100 100 100